N6EQ Weather Reports


time (UTC)temp
F
wind
direction
speed
knots
gust
knots
rain 1hr
in
rain 24hr
in
rain mn
in
humidity
%
barometer
mb
20240723061541 97 0.9 4.3 0.00 0.00 0.00 32 948.7
20240723053055 99 347 6.1 12.2 0.00 0.00 0.00 27 949.6
20240723051557 100 16 0.0 17.4 0.00 0.00 0.00 25 949.6
20240723050037 100 75 13.9 24.3 0.00 0.00 0.00 25 948.4
20240723050004 100 77 14.8 24.3 0.00 0.00 0.00 25 948.4
20240723044540 100 116 13.9 23.5 0.00 0.00 0.00 25 948.2
20240723043153 99 90 20.0 27.8 0.00 0.00 0.00 26 948.2
20240723041627 98 81 15.6 25.2 0.00 0.00 0.00 27 947.9
20240723040127 98 65 19.1 27.8 0.00 0.00 0.00 28 947.8
20240723033031 97 84 16.5 38.2 0.00 0.00 0.00 28 948.0
20240723031519 96 77 30.4 41.7 0.00 0.00 0.00 29 947.6
20240723030014 96 64 28.7 40.0 0.00 0.00 0.00 30 947.4
20240723024509 100 79 24.3 40.8 0.00 0.00 0.00 28 947.3
20240723023007 106 86 7.8 14.8 0.00 0.00 0.00 24 946.7
20240723021509 106 111 9.6 15.6 0.00 0.00 0.00 24 946.3
20240723020006 109 115 3.5 7.8 0.00 0.00 0.00 22 946.2
20240723014505 110 134 1.7 6.1 0.00 0.00 0.00 20 946.2
20240723013004 110 183 3.5 5.2 0.00 0.00 0.00 20 946.1
20240723011509 109 181 1.7 6.1 0.00 0.00 0.00 21 946.0
20240723010003 109 120 2.6 6.1 0.00 0.00 0.00 21 946.0
20240723004500 109 136 5.2 7.8 0.00 0.00 0.00 21 946.0
20240723003130 110 248 3.5 7.8 0.00 0.00 0.00 21 946.0
20240723001559 110 213 1.7 8.7 0.00 0.00 0.00 20 945.9
20240723000100 111 29 0.0 4.3 0.00 0.00 0.00 20 945.9
20240722234553 109 351 3.5 6.1 0.00 0.00 0.00 21 946.0
20240722233049 108 137 2.6 7.0 0.00 0.00 0.00 22 946.1
20240722231557 108 181 3.5 6.1 0.00 0.00 0.00 22 946.4
20240722230044 108 242 5.2 11.3 0.00 0.00 0.00 23 946.6
20240722224543 107 280 5.2 9.6 0.00 0.00 0.00 23 946.7
20240722223041 107 236 7.0 12.2 0.00 0.00 0.00 23 946.8
20240722221640 107 206 6.1 12.2 0.00 0.00 0.00 24 947.0
20240722220038 107 280 4.3 11.3 0.00 0.00 0.00 25 947.2
20240722214542 108 236 6.1 13.9 0.00 0.00 0.00 24 947.5
20240722213044 109 224 8.7 16.5 0.00 0.00 0.00 25 947.8
20240722211533 108 232 1.7 11.3 0.00 0.00 0.00 25 947.9
20240722210026 108 210 7.8 13.0 0.00 0.00 0.00 25 948.1
20240722204530 107 239 9.6 13.0 0.00 0.00 0.00 26 948.5
20240722203016 107 213 3.5 11.3 0.00 0.00 0.00 26 948.5
20240722201518 106 237 7.0 14.8 0.00 0.00 0.00 26 948.8
20240722200012 107 236 7.8 12.2 0.00 0.00 0.00 27 948.9
20240722194508 106 190 7.0 13.0 0.00 0.00 0.00 27 949.2
20240722193002 105 253 4.3 10.4 0.00 0.00 0.00 28 949.3
20240722191557 105 233 4.3 11.3 0.00 0.00 0.00 28 949.5
20240722190053 104 245 7.0 10.4 0.00 0.00 0.00 28 949.7
20240722184557 103 231 2.6 11.3 0.00 0.00 0.00 29 949.9
20240722183051 104 229 5.2 11.3 0.00 0.00 0.00 29 950.1
20240722181542 103 223 7.8 13.9 0.00 0.00 0.00 30 950.1
20240722180038 103 184 6.1 10.4 0.00 0.00 0.00 29 950.2
20240722174534 102 116 7.0 13.0 0.00 0.00 0.00 30 950.4
20240722173031 102 228 4.3 11.3 0.00 0.00 0.00 30 950.5
20240722171526 101 206 6.1 11.3 0.00 0.00 0.00 30 950.6
20240722170020 101 240 7.0 13.0 0.00 0.00 0.00 31 950.7
20240722164516 100 152 5.2 13.9 0.00 0.00 0.00 31 950.6
20240722163011 100 239 10.4 14.8 0.00 0.00 0.00 31 950.6
20240722161520 99 243 9.6 13.9 0.00 0.00 0.00 32 950.7
20240722160004 98 240 7.0 13.9 0.00 0.00 0.00 32 950.7
20240722154502 97 207 7.8 11.3 0.00 0.00 0.00 33 950.7
20240722153200 97 242 6.1 11.3 0.00 0.00 0.00 34 950.7
20240722151606 97 278 6.1 9.6 0.00 0.00 0.00 33 950.8
20240722150056 98 207 7.0 8.7 0.00 0.00 0.00 32 950.7
20240722144557 97 197 6.1 9.6 0.00 0.00 0.00 33 950.7
20240722143050 97 229 4.3 8.7 0.00 0.00 0.00 33 950.6
20240722141611 97 5.2 11.3 0.00 0.00 0.00 33 950.4
20240722140049 96 4.3 8.7 0.00 0.00 0.00 34 950.3
20240722134549 97 182 6.1 11.3 0.00 0.00 0.00 34 950.2
20240722133047 96 136 7.8 11.3 0.00 0.00 0.00 34 950.1
20240722131549 96 129 4.3 9.6 0.00 0.00 0.00 34 950.1
20240722130047 96 158 6.1 12.2 0.00 0.00 0.00 34 949.7
20240722124547 96 153 5.2 8.7 0.00 0.00 0.00 34 949.6
20240722123045 96 144 5.2 7.8 0.00 0.00 0.00 34 949.5
20240722121550 95 150 3.5 7.8 0.00 0.00 0.00 33 949.4
20240722120050 95 115 3.5 7.0 0.00 0.00 0.00 32 949.4
20240722114542 95 120 3.5 5.2 0.00 0.00 0.00 32 949.3
20240722113040 96 150 1.7 3.5 0.00 0.00 0.00 32 949.2
20240722111543 96 2.6 6.1 0.00 0.00 0.00 31 949.2
20240722110037 97 208 0.9 2.6 0.00 0.00 0.00 30 949.0
20240722104536 97 1.7 5.2 0.00 0.00 0.00 28 948.9
20240722103041 97 113 1.7 6.1 0.00 0.00 0.00 27 949.0
20240722101535 98 109 6.1 9.6 0.00 0.00 0.00 27 949.0
20240722100035 98 105 6.1 12.2 0.00 0.00 0.00 27 949.1
20240722094531 99 3.5 9.6 0.00 0.00 0.00 26 949.4
20240722093030 99 5.2 7.8 0.00 0.00 0.00 26 949.7
20240722091528 99 72 7.0 9.6 0.00 0.00 0.00 27 949.9
20240722090026 99 84 2.6 7.0 0.00 0.00 0.00 29 950.1
20240722084526 99 79 3.5 6.1 0.00 0.00 0.00 29 950.4
20240722083023 98 2.6 7.0 0.00 0.00 0.00 30 950.4
20240722081529 97 30 3.5 12.2 0.00 0.00 0.00 31 950.5
20240722080022 97 5.2 16.5 0.00 0.00 0.00 32 950.6
20240722074521 98 37 8.7 15.6 0.00 0.00 0.00 31 950.7
20240722073015 99 30 4.3 7.0 0.00 0.00 0.00 31 950.8
20240722071511 99 108 2.6 11.3 0.00 0.00 0.00 31 950.4
20240722070015 98 206 6.1 11.3 0.00 0.00 0.00 31 949.6
20240722064516 99 151 7.0 14.8 0.00 0.00 0.00 31 949.3